Raton, NM

4:40 PM MST on December 02, 2016 (GMT -0700)
Raton Municipal-Crews

Weather History for KRTN - November, 2013

Change the Weather History Date:

Saturday, November 9, 2013

  Actual Average (KTAD) Record (KTAD)
Temperature  
Mean Temperature 48 °F 44 °F  
Max Temperature 64 °F 59 °F 81 °F (1980)
Min Temperature 33 °F 28 °F -3 °F (1950)
Degree Days  
Heating Degree Days 16 21  
Month to date heating degree days 176  
Since 1 July heating degree days 677  
Cooling Degree Days 0 0  
Month to date cooling degree days 0  
Year to date cooling degree days 719  
Moisture  
Dew Point 20 °F    
Average Humidity 38    
Maximum Humidity 67    
Minimum Humidity 16    
Precipitation  
Precipitation 0.00 in 0.03 in 0.25 in (1998)
Sea Level Pressure  
Sea Level Pressure 30.07 in    
Wind  
Wind Speed 7 mph (ENE)    
Max Wind Speed 10 mph    
Max Gust Speed -    
Visibility 10 miles    
Events      
T = Trace of Precipitation, MM = Missing Value Source: NWS Daily Summary

Daily Weather History Graph

Daily Weather History Graph

Search for Another Location

Airport or City:

Trip Planner

Search our weather history database for the weather conditions in past years. The results will help you decide how hot, cold, wet, or windy it might be!

Date:

Astronomy

Nov. 09, 2013 Rise Set
Actual Time 6:30 AM MST 4:53 PM MST
Civil Twilight 6:02 AM MST 5:20 PM MST
Nautical Twilight 5:31 AM MST 5:51 PM MST
Astronomical Twilight 5:01 AM MST 6:21 PM MST
Moon 12:10 PM MST (11/9) 11:23 PM MST (11/9)
Length of Visible Light 11h 17m
Length of Day
10h 23m
Waxing Crescent, 45% of the Moon is Illuminated
Nov 9
Waxing Crescent
Nov 9
First Quarter
Nov 17
Full
Nov 25
Last Quarter
Dec 2
New

Hourly Weather History & Observations

Time (MST) Temp. Windchill Dew Point Humidity Pressure Visibility Wind Dir Wind Speed Gust Speed Precip Events Conditions
12:53 AM 34.0 °F 27.2 °F 16.0 °F 48% 29.95 in 10.0 mi ENE 8.1 mph - N/A   Clear
1:53 AM 34.0 °F 28.0 °F 16.0 °F 48% 29.92 in 10.0 mi Variable 6.9 mph - N/A   Clear
2:53 AM 33.1 °F 25.5 °F 16.0 °F 50% 29.92 in 10.0 mi NE 9.2 mph - N/A   Clear
3:53 AM 37.9 °F 34.4 °F 16.0 °F 41% 29.93 in 10.0 mi NE 4.6 mph - N/A   Clear
4:53 AM 37.0 °F 31.0 °F 17.1 °F 44% 29.98 in 10.0 mi ENE 8.1 mph - N/A   Clear
5:53 AM 37.0 °F 31.0 °F 17.1 °F 44% 30.03 in 10.0 mi ENE 8.1 mph - N/A   Clear
6:53 AM 39.0 °F 34.0 °F 18.0 °F 43% 30.06 in 10.0 mi NE 6.9 mph - N/A   Clear
7:53 AM 45.0 °F 41.2 °F 19.9 °F 37% 30.10 in 10.0 mi NE 6.9 mph - N/A   Clear
8:53 AM 50.0 °F - 21.9 °F 33% 30.12 in 10.0 mi East 5.8 mph - N/A   Clear
9:53 AM 57.0 °F - 19.9 °F 24% 30.09 in 10.0 mi East 4.6 mph - N/A   Clear
10:53 AM 61.0 °F - 21.9 °F 22% 30.09 in 10.0 mi East 8.1 mph - N/A   Clear
11:53 AM 63.0 °F - 21.0 °F 20% 30.06 in 10.0 mi Variable 6.9 mph - N/A   Clear
12:53 PM 64.0 °F - 19.0 °F 18% 30.04 in 10.0 mi Calm Calm - N/A   Clear
1:53 PM 64.9 °F - 18.0 °F 16% 30.02 in 10.0 mi SSE 4.6 mph - N/A   Clear
2:53 PM 64.9 °F - 17.1 °F 16% 30.04 in 10.0 mi SSW 6.9 mph - N/A   Clear
3:53 PM 63.0 °F - 16.0 °F 16% 30.03 in 10.0 mi SSW 10.4 mph - N/A   Clear
4:53 PM 55.0 °F - 19.0 °F 24% 30.09 in 10.0 mi South 5.8 mph - N/A   Clear
5:53 PM 46.9 °F - 19.9 °F 34% 30.16 in 10.0 mi North 6.9 mph - N/A   Clear
6:53 PM 44.1 °F 39.5 °F 23.0 °F 43% 30.19 in 10.0 mi North 8.1 mph - N/A   Clear
7:53 PM 41.0 °F 35.8 °F 23.0 °F 49% 30.19 in 10.0 mi North 8.1 mph - N/A   Clear
8:53 PM 37.9 °F 33.5 °F 23.0 °F 55% 30.20 in 10.0 mi North 5.8 mph - N/A   Clear
9:53 PM 36.0 °F - 24.1 °F 62% 30.20 in 10.0 mi Calm Calm - N/A   Clear
10:53 PM 36.0 °F - 24.1 °F 62% 30.19 in 10.0 mi Calm Calm - N/A   Clear
11:53 PM 34.0 °F 28.8 °F 24.1 °F 67% 30.18 in 10.0 mi NNE 5.8 mph - N/A   Clear